Location: Newark
(25.4800°N, 85.7200°E)
Time: 18:58:51
(UTC+00:00)

Vanguard 1 Rocket - Pass Details

Date: 24 August 2019
Orbit: 650 x 4226 km, 34.3° (Epoch: 13 October)

Event Time Altitude Azimuth Distance (km) Brightness Sun altitude
Rises 05:38:54 0° 258° (WSW) 6,014 11.5 72.8°
Reaches altitude 10° 05:46:37 10° 233° (SW) 5,839 11.7 73.7°
Maximum altitude 05:53:14 13° 212° (SSW) 6,188 11.9 74.4°
Drops below altitude 10° 06:01:03 10° 191° (S) 6,950 12.2 75.0°
Sets 06:13:32 0° 168° (SSE) 8,426 12.5 75.6°
